GW3537 Weather Reports


time (UTC)temp
F
wind
direction
speed
knots
gust
knots
rain 1hr
in
rain 24hr
in
rain mn
in
humidity
%
barometer
mb
20260503054529 46 256 0.0 0.0 0.00 0.06 0.06 89 1016.9
20260503053015 47 256 0.0 0.0 0.00 0.06 0.06 88 1017.0
20260503051519 48 256 0.0 0.0 0.00 0.06 0.06 87 1017.3
20260503050033 49 255 0.0 0.0 0.00 0.06 0.06 87 1017.3
20260503044526 49 271 0.0 0.0 0.00 0.06 0.06 87 1017.3
20260503043026 49 294 0.0 0.0 0.00 0.06 0.06 87 1017.2
20260503041518 49 293 0.0 0.0 0.00 0.06 0.06 87 1017.4
20260503040002 49 293 0.0 0.0 0.01 0.06 0.06 86 1017.1
20260503034508 49 293 0.0 0.0 0.01 0.06 0.06 87 1016.6
20260503033012 49 38 0.0 0.0 0.01 0.06 0.06 86 1016.2
20260503031515 50 261 0.0 0.9 0.02 0.06 0.06 83 1016.0
20260503030020 50 243 0.0 0.0 0.01 0.05 0.05 83 1016.0
20260503024508 51 243 0.0 0.0 0.01 0.05 0.05 83 1016.4
20260503023008 51 163 0.0 0.0 0.01 0.05 0.05 80 1016.9
20260503021514 51 191 0.0 0.0 0.01 0.04 0.04 79 1016.4
20260503020017 52 169 0.0 0.0 0.04 0.04 0.04 81 1016.1
20260503014536 52 91 0.0 2.6 0.04 0.04 0.04 80 1016.5
20260503013016 52 95 0.0 4.3 0.04 0.04 0.04 79 1016.6
20260503011512 53 64 0.0 10.4 0.03 0.03 0.03 72 1016.6
20260503010015 56 82 0.0 2.6 0.00 0.00 0.00 62 1016.1
20260503004521 58 80 0.0 4.3 0.00 0.00 0.00 53 1015.8
20260503003024 59 122 0.9 4.3 0.00 0.00 0.00 55 1015.4
20260503001509 61 283 0.0 3.5 0.00 0.00 0.00 47 1015.0
20260503000015 62 276 0.0 2.6 0.00 0.00 0.00 41 1014.5
20260502234516 61 285 0.0 0.0 0.00 0.00 0.00 42 1014.6
20260502233023 61 314 0.0 0.9 0.00 0.00 0.00 41 1014.9
20260502231506 61 309 0.0 0.9 0.00 0.00 0.00 42 1015.1
20260502230013 60 39 0.0 0.9 0.00 0.00 0.00 46 1015.1
20260502224516 59 289 0.0 7.0 0.00 0.00 0.00 48 1015.1
20260502223020 60 266 0.9 7.0 0.00 0.00 0.00 41 1015.7
20260502221521 61 198 1.7 7.0 0.00 0.00 0.00 45 1015.5
20260502220010 63 291 1.7 10.4 0.00 0.00 0.00 37 1015.5
20260502214516 65 76 0.0 0.0 0.00 0.00 0.00 35 1015.7
20260502213020 66 51 0.0 0.9 0.00 0.00 0.00 36 1015.6
20260502211533 66 281 0.0 0.0 0.00 0.00 0.00 33 1015.8
20260502210023 64 248 0.0 2.6 0.00 0.00 0.00 36 1016.0
20260502204514 65 193 0.9 7.8 0.00 0.00 0.00 33 1016.5
20260502203015 66 243 0.0 1.7 0.00 0.00 0.00 31 1016.0
20260502201520 66 257 0.0 1.7 0.00 0.00 0.00 29 1016.1
20260502200024 67 253 0.0 1.7 0.00 0.00 0.00 27 1016.2
20260502194527 67 72 0.0 3.5 0.00 0.00 0.00 27 1016.3
20260502193018 67 284 0.0 0.9 0.00 0.00 0.00 27 1016.4
20260502191524 67 269 0.0 0.9 0.00 0.00 0.00 27 1016.4
20260502190026 68 44 0.0 2.6 0.00 0.00 0.00 26 1016.5
20260502184526 67 45 0.0 0.9 0.00 0.00 0.00 26 1016.5
20260502183012 67 260 0.0 0.0 0.00 0.00 0.00 29 1016.6
20260502181527 66 276 0.0 1.7 0.00 0.00 0.00 29 1016.8
20260502163010 65 82 0.0 0.0 0.00 0.00 0.00 44 1016.8
20260502161514 64 103 0.0 0.9 0.00 0.00 0.00 42 1016.8
20260502123024 42 271 0.0 0.0 0.00 0.00 0.00 71 1016.2
20260502121508 43 271 0.0 0.0 0.00 0.00 0.00 71 1016.2
20260502114517 41 271 0.0 0.0 0.00 0.00 0.00 72 1016.2
20260502113004 42 271 0.0 0.0 0.00 0.00 0.00 72 1016.2
20260502111506 42 271 0.0 0.0 0.00 0.00 0.00 71 1016.2
20260502110008 42 271 0.0 0.0 0.00 0.00 0.00 71 1016.1
20260502104536 43 271 0.0 0.0 0.00 0.00 0.00 70 1016.2
20260502103026 43 271 0.0 0.0 0.00 0.00 0.00 69 1016.2
20260502101506 44 271 0.0 0.0 0.00 0.00 0.00 67 1016.1
20260502091524 45 271 0.0 0.0 0.00 0.00 0.00 63 1016.4
20260502071536 51 280 0.0 0.0 0.00 0.00 0.00 43 1017.3